DW5425 Weather Reports


time (UTC)temp
C
wind
direction
speed
KPH
gust
KPH
rain 1hr
cm
rain 24hr
cm
rain mn
cm
humidity
%
barometer
mb
20260507085503 10 346 0.0 3.2 0.00 0.71 0.00 57 1010.5
20260507085004 10 348 1.6 4.8 0.00 0.71 0.00 56 1010.4
20260507084003 11 303 6.4 9.7 0.00 0.71 0.00 55 1010.4
20260507083004 11 308 4.8 8.0 0.00 0.71 0.00 55 1010.4
20260507082004 11 295 3.2 4.8 0.00 0.71 0.00 54 1010.4
20260507081503 11 292 3.2 4.8 0.00 0.71 0.00 54 1010.5
20260507081003 11 311 3.2 4.8 0.00 0.71 0.00 54 1010.6
20260507080004 11 331 3.2 9.7 0.00 0.71 0.00 53 1010.5
20260507073504 11 307 8.0 16.1 0.00 0.71 0.00 53 1010.5
20260507072504 11 325 4.8 14.5 0.00 0.71 0.00 55 1010.5
20260507072004 11 305 8.0 14.5 0.00 0.71 0.00 55 1010.6
20260507071004 11 307 8.0 16.1 0.00 0.71 0.00 56 1010.5
20260507070504 11 309 4.8 19.3 0.00 0.71 0.00 58 1010.5
20260507070008 11 307 4.8 12.9 0.00 0.71 0.00 60 1010.5
20260507064003 11 310 4.8 4.8 0.00 0.71 0.00 63 1010.6
20260507063004 12 294 4.8 11.3 0.00 0.71 0.00 63 1010.6
20260507061504 12 274 6.4 16.1 0.00 0.71 0.00 64 1010.5
20260507060504 12 302 6.4 12.9 0.00 0.71 0.00 65 1010.6
20260507054505 12 314 8.0 16.1 0.00 0.71 0.00 69 1010.3
20260507053504 12 302 8.0 14.5 0.00 0.71 0.00 70 1010.3
20260507052503 12 319 6.4 9.7 0.00 0.71 0.00 71 1010.3
20260507051503 12 308 4.8 11.3 0.00 0.71 0.00 71 1010.3
20260507050503 12 310 4.8 11.3 0.00 0.71 0.00 71 1010.5
20260507044505 12 326 3.2 11.3 0.00 0.71 0.00 71 1010.4
20260507044004 12 355 3.2 8.0 0.00 0.71 0.00 72 1010.3
20260507043003 12 300 4.8 11.3 0.00 0.71 0.00 72 1010.6
20260507042004 13 300 3.2 4.8 0.00 0.71 0.00 72 1010.3
20260507041004 13 328 3.2 8.0 0.00 0.71 0.00 70 1010.3
20260507035004 13 310 4.8 9.7 0.00 0.71 0.71 70 1010.3
20260507034004 13 293 1.6 4.8 0.00 0.71 0.71 70 1010.3
20260507033004 13 256 3.2 9.7 0.00 0.71 0.71 70 1010.3
20260507032504 13 314 4.8 8.0 0.00 0.71 0.71 69 1010.3
20260507032003 13 332 4.8 14.5 0.00 0.71 0.71 69 1010.3
20260507031004 13 323 6.4 12.9 0.00 0.71 0.71 69 1009.5
20260507025503 13 292 4.8 11.3 0.00 0.71 0.71 72 1010.1
20260507024503 13 301 8.0 14.5 0.00 0.71 0.71 71 1009.6
20260507024003 13 309 8.0 16.1 0.00 0.71 0.71 71 1009.7
20260507023505 13 300 8.0 11.3 0.00 0.71 0.71 72 1009.8
20260507023004 13 286 4.8 16.1 0.00 0.71 0.71 72 1010.0
20260507022504 13 308 3.2 9.7 0.00 0.71 0.71 72 1009.8
20260507022004 14 301 4.8 19.3 0.00 0.71 0.71 72 1009.8
20260507021004 14 291 4.8 12.9 0.00 0.71 0.71 72 1009.6
20260507020503 14 301 4.8 12.9 0.00 0.71 0.71 72 1009.6
20260507020004 14 297 4.8 11.3 0.00 0.71 0.71 72 1009.8
20260507015503 14 324 3.2 11.3 0.00 0.71 0.71 72 1009.7
20260507013503 15 300 9.7 19.3 0.00 0.71 0.71 71 1009.6
20260507012003 15 271 9.7 19.3 0.00 0.71 0.71 70 1009.6
20260507011504 15 321 8.0 14.5 0.00 0.71 0.71 70 1009.7
20260507011004 15 312 9.7 16.1 0.00 0.71 0.71 70 1009.6
20260507010504 15 302 8.0 14.5 0.00 0.71 0.71 70 1009.6
20260507003004 16 290 8.0 14.5 0.00 0.71 0.71 71 1009.1
20260507002504 16 297 6.4 12.9 0.00 0.71 0.71 71 1009.2
20260507002003 16 277 3.2 14.5 0.00 0.71 0.71 71 1009.1
20260506235504 16 325 6.4 12.9 0.00 0.71 0.71 70 1008.1
20260506235003 16 297 8.0 19.3 0.00 0.71 0.71 70 1007.8
20260506234504 17 306 8.0 19.3 0.00 0.71 0.71 70 1007.9
20260506233503 17 315 6.4 9.7 0.00 0.71 0.71 72 1007.6
20260506233004 17 275 4.8 14.5 0.00 0.71 0.71 71 1007.5
20260506232503 17 277 4.8 12.9 0.00 0.71 0.71 71 1007.3
20260506231004 17 285 8.0 19.3 0.00 0.71 0.71 73 1007.2
20260506230504 17 308 8.0 11.3 0.00 0.71 0.71 73 1007.2
20260506230004 17 284 9.7 22.5 0.00 0.71 0.71 72 1007.1
20260506224503 18 321 8.0 19.3 0.00 0.71 0.71 74 1007.0
20260506224003 18 304 8.0 16.1 0.00 0.71 0.71 74 1007.0
20260506222503 18 260 4.8 9.7 0.00 0.71 0.71 81 1006.6
20260506221504 18 234 0.0 3.2 0.00 0.71 0.71 81 1006.6
20260506215504 19 171 0.0 1.6 0.00 0.71 0.71 80 1006.4
20260506214004 19 134 0.0 3.2 0.00 0.71 0.71 79 1006.1
20260506213004 19 103 0.0 1.6 0.00 0.71 0.71 80 1005.9
20260506212505 19 195 1.6 4.8 0.00 0.71 0.71 81 1005.9
20260506212003 19 149 1.6 3.2 0.00 0.71 0.71 81 1005.8
20260506211503 19 158 0.0 3.2 0.00 0.71 0.71 81 1005.7
20260506210504 19 162 0.0 4.8 0.00 0.71 0.71 80 1005.6
20260506205504 19 242 0.0 1.6 0.00 0.71 0.71 79 1005.7
20260506204504 19 176 0.0 8.0 0.00 0.71 0.71 79 1005.6
20260506202503 19 179 1.6 4.8 0.00 0.71 0.71 79 1005.6
20260506202003 19 220 1.6 8.0 0.00 0.71 0.71 79 1005.5
20260506200004 19 166 1.6 8.0 0.00 0.71 0.71 82 1005.6
20260506193503 18 291 0.0 3.2 0.00 0.71 0.71 87 1005.9
20260506193004 17 190 1.6 9.7 0.00 0.71 0.71 87 1005.8
20260506191503 17 152 0.0 0.0 0.00 0.71 0.71 88 1005.9
20260506191004 17 152 0.0 4.8 0.00 0.71 0.71 88 1006.0
20260506190004 17 148 0.0 4.8 0.00 0.71 0.71 88 1006.0
20260506185504 16 171 1.6 4.8 0.00 0.71 0.71 88 1006.0
20260506185004 16 149 0.0 4.8 0.00 0.71 0.71 88 1006.1
20260506184504 16 157 0.0 3.2 0.00 0.71 0.71 89 1006.1
20260506183005 16 150 1.6 4.8 0.00 0.71 0.71 89 1006.1
20260506181504 16 161 1.6 3.2 0.03 0.71 0.71 89 1006.2
20260506180503 16 152 0.0 1.6 0.05 0.71 0.71 89 1006.2
20260506180005 16 152 0.0 0.0 0.05 0.71 0.71 89 1006.3
20260506174504 16 152 0.0 3.2 0.05 0.71 0.71 89 1006.4
20260506174003 16 142 0.0 3.2 0.05 0.71 0.71 89 1006.3
20260506173504 16 156 0.0 3.2 0.05 0.71 0.71 89 1006.2
20260506172005 16 168 1.6 4.8 0.03 0.69 0.69 88 1006.2
20260506171504 16 166 1.6 3.2 0.03 0.69 0.69 88 1006.3
20260506170504 16 184 1.6 4.8 0.00 0.66 0.66 88 1006.4
20260506170004 16 158 1.6 4.8 0.00 0.66 0.66 87 1006.3
20260506165504 16 160 0.0 4.8 0.00 0.66 0.66 88 1006.4
20260506164504 16 166 1.6 4.8 0.00 0.66 0.66 88 1006.3
20260506163003 16 166 1.6 4.8 0.00 0.66 0.66 88 1006.3
20260506162503 16 162 1.6 8.0 0.00 0.66 0.66 88 1006.3
20260506161504 16 154 3.2 9.7 0.00 0.66 0.66 89 1006.3
20260506160004 16 169 1.6 4.8 0.00 0.66 0.66 89 1006.3
20260506155504 15 160 1.6 4.8 0.03 0.66 0.66 89 1006.3
20260506154503 15 160 1.6 4.8 0.05 0.66 0.66 89 1006.4
20260506152004 15 162 3.2 8.0 0.15 0.66 0.66 89 1006.2
20260506151504 15 162 4.8 12.9 0.20 0.66 0.66 89 1006.2
20260506151003 15 157 3.2 4.8 0.25 0.66 0.66 89 1006.1
20260506150003 15 154 3.2 12.9 0.30 0.66 0.66 89 1006.3
20260506145505 15 163 4.8 12.9 0.28 0.64 0.64 89 1006.2
20260506144504 15 168 3.2 11.3 0.25 0.61 0.61 88 1006.5
20260506144004 15 151 3.2 4.8 0.25 0.58 0.58 88 1006.6
20260506143003 15 184 3.2 4.8 0.25 0.53 0.53 88 1007.0
20260506140503 15 163 3.2 9.7 0.20 0.36 0.36 87 1006.9
20260506135504 16 157 3.2 8.0 0.20 0.36 0.36 88 1006.7
20260506134004 15 163 3.2 9.7 0.18 0.33 0.33 87 1006.6
20260506133004 15 148 3.2 4.8 0.15 0.28 0.28 86 1006.6
20260506131503 16 155 4.8 9.7 0.08 0.20 0.20 85 1006.6
20260506130004 16 168 1.6 9.7 0.05 0.15 0.15 84 1006.7
20260506125503 16 156 1.6 8.0 0.05 0.15 0.15 84 1006.7
20260506125003 16 155 3.2 8.0 0.08 0.15 0.15 84 1006.6
20260506124004 16 169 3.2 4.8 0.10 0.15 0.15 84 1006.7
20260506123504 16 159 1.6 4.8 0.10 0.15 0.15 83 1006.9
20260506122504 16 156 1.6 3.2 0.13 0.13 0.13 83 1006.9
20260506120504 16 153 1.6 4.8 0.10 0.10 0.10 81 1007.1
20260506114004 17 133 1.6 4.8 0.05 0.05 0.05 76 1007.1
20260506112504 17 180 0.0 4.8 0.00 0.00 0.00 74 1006.8
20260506105004 18 174 0.0 4.8 0.00 0.00 0.00 69 1006.2
20260506104503 18 189 3.2 9.7 0.00 0.00 0.00 68 1006.2
20260506102004 18 194 3.2 8.0 0.00 0.00 0.00 65 1005.9
20260506100504 19 173 1.6 4.8 0.00 0.00 0.00 64 1005.8
20260506095504 19 240 3.2 4.8 0.00 0.00 0.00 64 1005.7
20260506093504 19 166 3.2 8.0 0.00 0.00 0.00 63 1005.4
20260506093003 19 148 3.2 8.0 0.00 0.00 0.00 63 1005.6
20260506092503 19 168 3.2 8.0 0.00 0.00 0.00 62 1005.5
20260506092005 19 172 1.6 4.8 0.00 0.00 0.00 62 1005.7
20260506091504 19 159 1.6 12.9 0.00 0.00 0.00 62 1005.8
20260506091004 19 159 1.6 4.8 0.00 0.00 0.00 62 1005.8
20260506090004 19 161 4.8 9.7 0.00 0.00 0.00 62 1005.8